DELTA 1 DEB, 10206

Orbit data source: Space-Track

DELTA 1 DEB, 10206 is space debris in LEO originally from a launch on Thu, 14 Jul 1977 UTC launched from the Air Force Eastern Test Range (AFETR). Debris objects in space refer to the collection of defunct objects orbiting the Earth. Examples of debris include non-operational satellites, rocket bodies, and fragments generated from explosions, collisions, or faulty payload assembly.

Loading next visibility...
Identifier
10206, 1977-065AK
Orbit
LEO
Last TLE update
23 hours ago
Origin
Manufacturer
Unknown
Mission
Spacecraft
Bus & Motor
Unknown
Mass
Unknown
Launch date (UTC)
1977-07-14 (48 years ago)
Launch vehicle
Unknown
Launch site
Air Force Eastern Test Range (AFETR)
Object type
Payload
Rocket body
Debris
Shape & HBR
Unknown
Radar Cross Section
Small (<0.1 m²)

Expand to show TLE details & history

TLE from 23 hours ago
0 DELTA 1 DEB
1 10206U 77065AK  25128.26566076  .00000757  00000-0  53136-3 0  9990
2 10206  29.2055 129.6289 0534619 153.0201 209.9223 13.40356732260257
Epoch: 2025-05-08T06:22Z
Definitive object data (Epoch: 2025-05-08T06:22:33.089Z)
Latitude
0.00001°
Longitude
167.65242°
Altitude
1,458.17 km
Speed
6.966 km/s
True Right ascension
08h 38m 30s
True Declination
0° 00' 00"
Sunlit
Object was in daylight at TLE epoch
Visualization TLE readout
Latitude
-22.7955°
Longitude
114.43831°
Altitude
1,441.236 km
Speed
6.984 km/s
Apparent Right ascension
03h 39m 16s
Apparent Declination
-33° 12' 38"
Sunlit
Object is in daylight
Visualization observer readout
Local Sidereal Time
13:28:03
Azimuth
273.931° WNW
Elevation
-62.976°
Doppler factor
1
Orbital elements
Apogee altitude
1,512.179 km
Perigee altitude
711.331 km
Semi-major axis
7,489.892 km
Eccentricity
0.0534619
Inclination
29.2055°
RAAN
129.6289°
Arg. of periapsis
153.0201°
True anomaly
207.03521°
Mean anomaly
209.9223°
Eccentric anomaly
208.46246°
Mean motion
3.34834 °/min
BSTAR
0.00053136
Orbital period
107.52 mins
Loading maneuver chart data...
Loading SW <> Apogee altitude chart data...
Loading historical data...
Loading historical data...
Loading historical data...
Loading historical data...
Loading historical data...
Loading historical data...
Loading historical data...

DELTA 1 DEB Visibility forecast

Observer location: undefined°, undefined°

Span
Click to sort rows by Start time (UTC) header in descending order
Start Az.
Max El. time (UTC)
Max El. Az.
Max El.
End time (UTC)
End Az.
10 mins2025-05-09 05:58:24.473Z239.778° WSW2025-05-09 06:04:24.473Z175.306° S27.552°2025-05-09 06:08:24.473Z126.181° SE
7 mins2025-05-09 07:54:24.473Z234.792° WSW2025-05-09 07:57:24.473Z198.672° SSW20.316°2025-05-09 08:01:24.473Z149.658° SSE
4 mins2025-05-10 01:27:24.473Z164.549° S2025-05-10 01:29:24.473Z150.35° SSE12.035°2025-05-10 01:31:24.473Z135.872° SSE
10 mins2025-05-10 03:18:24.473Z207.153° SW2025-05-10 03:23:24.473Z160.948° S23.431°2025-05-10 03:28:24.473Z114.357° SE
8 mins2025-05-10 05:11:24.473Z235.796° WSW2025-05-10 05:17:24.473Z172.953° S28.62°2025-05-10 05:19:24.473Z142.944° SSE
|